Atlanta, GA

9:07 AM EST on December 08, 2019 (GMT -0500)
The Hartsfield Atlanta International

Weather History for KATL - October, 2019

Change the Weather History Date:

Wednesday, October 2, 2019

  Actual Average Record
Temperature  
Mean Temperature 84 °F 68 °F  
Max Temperature 96 °F 77 °F 89 °F (1986)
Min Temperature 73 °F 59 °F 42 °F (1895)
Degree Days  
Heating Degree Days 0 1  
Month to date heating degree days 0 2  
Since 1 July heating degree days 0 13  
Cooling Degree Days 20 4  
Month to date cooling degree days 39 8  
Year to date cooling degree days 2516 1813  
Growing Degree Days 34 (Base 50)    
Moisture  
Dew Point 66 °F    
Average Humidity 55    
Maximum Humidity 79    
Minimum Humidity 34    
Precipitation  
Precipitation 0.00 in 0.14 in 1.72 in (1988)
Month to date precipitation 0.00 0.29  
Year to date precipitation 32.33 38.59  
Sea Level Pressure  
Sea Level Pressure 30.01 in    
Wind  
Wind Speed 4 mph ()    
Max Wind Speed 14 mph    
Max Gust Speed 16 mph    
Visibility 9.9 miles    
Events      
T = Trace of Precipitation, MM = Missing Value Source: Averaged Metar Reports

Daily Weather History Graph

Daily Weather History Graph

Search for Another Location

Airport or City:

Astronomy

Oct. 02, 2019 Rise Set
Actual Time 7:32 AM EDT 7:21 PM EDT
Civil Twilight 7:07 AM EDT 7:45 PM EDT
Nautical Twilight 6:38 AM EDT 8:14 PM EDT
Astronomical Twilight 6:09 AM EDT 8:43 PM EDT
Moon 11:45 AM EDT (10/2) 10:26 PM EDT (10/2)
Length of Visible Light 12h 38m
Length of Day
11h 48m
Waxing Crescent, 20% of the Moon is Illuminated
Oct 2
Waxing Crescent
Oct 5
First Quarter
Oct 13
Full
Oct 21
Last Quarter
Oct 27
New

Hourly Weather History & Observations

Time (EDT) Temp. Heat Index Dew Point Humidity Pressure Visibility Wind Dir Wind Speed Gust Speed Precip Events Conditions
12:52 AM 80.1 °F 82.3 °F 66.9 °F 64% 30.03 in 9.0 mi SE 5.8 mph - N/A   Partly Cloudy
1:52 AM 79.0 °F - 66.0 °F 64% 30.03 in 10.0 mi South 4.6 mph - N/A   Clear
2:52 AM 78.1 °F - 66.9 °F 68% 30.02 in 10.0 mi SSW 4.6 mph - N/A   Clear
3:52 AM 77.0 °F - 66.0 °F 69% 30.02 in 10.0 mi South 3.5 mph - N/A   Clear
4:52 AM 75.9 °F - 66.0 °F 71% 30.02 in 10.0 mi Calm Calm - N/A   Clear
5:52 AM 75.0 °F - 66.0 °F 73% 30.03 in 10.0 mi SW 3.5 mph - N/A   Clear
6:52 AM 75.0 °F - 66.0 °F 73% 30.04 in 10.0 mi SW 3.5 mph - N/A   Clear
7:52 AM 73.9 °F - 66.9 °F 79% 30.06 in 9.0 mi SW 3.5 mph - N/A   Partly Cloudy
8:52 AM 77.0 °F - 66.9 °F 71% 30.07 in 10.0 mi WSW 8.1 mph - N/A   Partly Cloudy
9:52 AM 81.0 °F 83.3 °F 66.9 °F 62% 30.08 in 10.0 mi West 11.5 mph - N/A   Clear
10:52 AM 84.0 °F 86.5 °F 66.9 °F 56% 30.07 in 10.0 mi West 9.2 mph - N/A   Clear
11:52 AM 88.0 °F 91.4 °F 68.0 °F 51% 30.06 in 10.0 mi Variable 5.8 mph - N/A   Partly Cloudy
12:52 PM 90.0 °F 92.8 °F 66.9 °F 46% 30.04 in 10.0 mi North 5.8 mph - N/A   Partly Cloudy
1:52 PM 91.9 °F 95.4 °F 66.9 °F 44% 30.01 in 10.0 mi South 3.5 mph - N/A   Partly Cloudy
2:52 PM 93.0 °F 96.4 °F 66.9 °F 42% 29.99 in 10.0 mi NNW 3.5 mph - N/A   Scattered Clouds
3:52 PM 93.9 °F 96.1 °F 64.9 °F 38% 29.96 in 10.0 mi Calm Calm - N/A   Partly Cloudy
4:52 PM 95.0 °F 96.0 °F 63.0 °F 34% 29.94 in 10.0 mi NNW 4.6 mph - N/A   Partly Cloudy
5:52 PM 93.9 °F 95.6 °F 64.0 °F 37% 29.94 in 10.0 mi NNW 5.8 mph - N/A   Partly Cloudy
6:52 PM 93.0 °F 94.2 °F 63.0 °F 37% 29.95 in 10.0 mi West 3.5 mph - N/A   Partly Cloudy
7:52 PM 91.9 °F 92.9 °F 63.0 °F 38% 29.96 in 10.0 mi WNW 4.6 mph - N/A   Scattered Clouds
8:52 PM 88.0 °F 89.6 °F 64.9 °F 46% 29.97 in 10.0 mi Calm Calm - N/A   Partly Cloudy
9:52 PM 87.1 °F 89.9 °F 66.9 °F 51% 29.98 in 10.0 mi Calm Calm - N/A   Partly Cloudy
10:52 PM 84.9 °F 87.6 °F 66.9 °F 55% 29.98 in 10.0 mi West 3.5 mph - N/A   Partly Cloudy
11:52 PM 82.9 °F 85.8 °F 68.0 °F 60% 29.98 in 10.0 mi Calm Calm - N/A   Partly Cloudy